Date String (YYYY-MM-DD hh:mm:ss) UTC,Instrument flags,Ambient pressure (hPa),Sample flow (lpm),Bypass flow (lpm),Sample temperature (°C),Ambient temperature (°C),ASC tube jacket temperature (°C),LED temperature (°C),Box temperature (°C),Sample RH (%),Mass concentration (μg/m³),Mass concentration (μg/m³)
DateTimeUTC,F1_M11,P_M11,Q1_M11,Q2_M11,T1_M11,T2_M11,T3_M11,T4_M11,T5_M11,U1_M11,X2_M11,X0_M11
2021-08-11 14:00:00,FlowAlarm;OPCInstrumentWarning,0830.0,5.00,0.00,29.9,29.1,00.0,39.0,31.9,17.1,0030.02,0046.59
2021-08-11 14:01:00,FlowAlarm;OPCInstrumentWarning,0830.1,5.01,0.00,29.9,29.2,00.0,39.0,31.9,17.7,0030.08,0045.95
2021-08-11 14:02:00,FlowAlarm;OPCInstrumentWarning,0830.1,4.99,0.00,30.0,29.2,00.0,39.0,31.9,18.3,0030.14,0045.59
2021-08-11 14:03:00,FlowAlarm;OPCInstrumentWarning,0830.1,5.01,0.00,30.0,29.3,00.0,39.0,32.0,19.0,0030.29,0045.42
2021-08-11 14:04:00,FlowAlarm;OPCInstrumentWarning,0830.1,5.00,0.00,30.0,29.3,00.0,39.1,32.0,19.3,0030.64,0045.28
2021-08-11 14:05:00,FlowAlarm;OPCInstrumentWarning,0830.1,4.99,0.00,30.1,29.3,00.0,39.1,32.0,19.6,0030.88,0044.90
2021-08-11 14:06:00,FlowAlarm;OPCInstrumentWarning,0830.1,5.01,0.00,30.1,29.4,00.0,39.1,32.1,19.6,0031.22,0044.72
2021-08-11 14:07:00,FlowAlarm;OPCInstrumentWarning,0830.1,4.99,0.00,30.1,29.4,00.0,39.2,32.1,19.8,0031.57,0045.87
2021-08-11 14:08:00,FlowAlarm;OPCInstrumentWarning,0830.1,5.00,0.00,30.1,28.6,00.0,39.2,31.9,19.9,0032.06,0048.78
2021-08-11 14:09:00,FlowAlarm;OPCInstrumentWarning,0830.1,5.00,0.00,30.0,26.7,00.0,39.1,31.3,20.2,0032.47,0050.77
2021-08-11 14:10:00,FlowAlarm;OPCInstrumentWarning,0830.2,5.01,0.00,29.8,26.2,00.0,39.1,31.2,20.6,0032.77,0052.00
2021-08-11 14:11:00,FlowAlarm;OPCInstrumentWarning,0830.1,5.00,0.00,29.7,26.5,00.0,39.1,31.3,21.1,0033.00,0052.80
2021-08-11 14:12:00,FlowAlarm;OPCInstrumentWarning,0830.1,5.01,0.00,29.7,26.9,00.0,39.0,31.3,20.8,0033.19,0054.25
2021-08-11 14:13:00,FlowAlarm;OPCInstrumentWarning,0830.1,5.00,0.00,29.6,27.3,00.0,39.0,31.4,20.7,0033.34,0054.70
2021-08-11 14:14:00,FlowAlarm;OPCInstrumentWarning,0830.2,5.00,0.00,29.6,27.6,00.0,38.9,31.4,20.3,0033.51,0054.66
2021-08-11 14:15:00,FlowAlarm;OPCInstrumentWarning,0830.2,4.99,0.00,29.6,27.9,00.0,38.9,31.5,20.9,0033.54,0054.27
2021-08-11 14:16:00,FlowAlarm;OPCInstrumentWarning,0830.3,4.99,0.00,29.6,28.1,00.0,38.9,31.5,21.1,0033.63,0054.61
2021-08-11 14:17:00,FlowAlarm;OPCInstrumentWarning,0830.3,4.99,0.00,29.6,28.3,00.0,38.9,31.5,20.8,0033.71,0054.83
2021-08-11 14:18:00,FlowAlarm;OPCInstrumentWarning,0830.3,5.00,0.00,29.6,28.4,00.0,38.9,31.6,21.0,0033.79,0054.73
2021-08-11 14:19:00,FlowAlarm;OPCInstrumentWarning,0830.3,5.01,0.00,29.7,28.6,00.0,38.9,31.6,21.2,0033.81,0052.80
2021-08-11 14:20:00,FlowAlarm;OPCInstrumentWarning,0830.3,5.00,0.00,29.7,28.7,00.0,38.9,31.7,21.4,0033.74,0051.24
2021-08-11 14:21:00,FlowAlarm;OPCInstrumentWarning,0830.2,5.00,0.00,29.7,28.8,00.0,38.9,31.7,20.7,0033.67,0050.63
2021-08-11 14:22:00,FlowAlarm;OPCInstrumentWarning,0830.3,5.02,0.00,29.8,28.8,00.0,38.9,31.7,20.5,0033.65,0050.67
2021-08-11 14:23:00,FlowAlarm;OPCInstrumentWarning,0830.2,5.00,0.00,29.8,28.9,00.0,38.9,31.8,20.1,0033.60,0048.93
2021-08-11 14:24:00,FlowAlarm;OPCInstrumentWarning,0830.3,5.00,0.00,29.8,29.0,00.0,39.0,31.8,20.2,0033.57,0048.01
2021-08-11 14:25:00,FlowAlarm;OPCInstrumentWarning,0830.4,5.01,0.00,29.9,29.0,00.0,39.0,31.9,19.5,0033.54,0048.11
2021-08-11 14:26:00,FlowAlarm;OPCInstrumentWarning,0830.4,4.99,0.00,29.9,29.1,00.0,39.0,31.9,19.6,0033.49,0048.21
2021-08-11 14:27:00,FlowAlarm;OPCInstrumentWarning,0830.5,5.00,0.00,29.9,29.2,00.0,39.0,31.9,19.7,0033.44,0047.84
2021-08-11 14:28:00,FlowAlarm;OPCInstrumentWarning,0830.5,5.02,0.00,30.0,29.2,00.0,39.0,32.0,19.5,0033.27,0047.27
2021-08-11 14:29:00,FlowAlarm;OPCInstrumentWarning,0830.6,4.99,0.00,30.0,29.3,00.0,39.1,32.0,19.3,0033.14,0046.77
2021-08-11 14:30:00,FlowAlarm;OPCInstrumentWarning,0830.5,4.98,0.00,30.0,29.1,00.0,39.1,31.9,19.2,0033.01,0047.25
2021-08-11 14:31:00,FlowAlarm;OPCInstrumentWarning,0830.5,5.01,0.00,30.0,27.4,00.0,39.1,31.6,19.2,0032.90,0048.51
2021-08-11 14:32:00,FlowAlarm;OPCInstrumentWarning,0830.5,4.99,0.00,29.8,26.1,00.0,39.0,31.3,19.1,0032.85,0048.49
2021-08-11 14:33:00,FlowAlarm;OPCInstrumentWarning,0830.5,5.00,0.00,29.7,26.2,00.0,39.0,31.2,19.2,0032.83,0047.92
2021-08-11 14:34:00,FlowAlarm;OPCInstrumentWarning,0830.4,5.01,0.00,29.6,26.7,00.0,38.9,31.2,19.2,0032.78,0048.09
2021-08-11 14:35:00,FlowAlarm;OPCInstrumentWarning,0830.4,5.00,0.00,29.5,27.1,00.0,38.9,31.3,19.1,0032.75,0048.20
2021-08-11 14:36:00,FlowAlarm;OPCInstrumentWarning,0830.4,5.01,0.00,29.5,27.4,00.0,38.9,31.3,19.5,0032.64,0048.54
2021-08-11 14:37:00,FlowAlarm;OPCInstrumentWarning,0830.4,5.00,0.00,29.5,27.8,00.0,38.8,31.4,19.7,0032.59,0048.66
2021-08-11 14:38:00,FlowAlarm;OPCInstrumentWarning,0830.5,5.00,0.00,29.5,28.0,00.0,38.8,31.4,19.8,0032.58,0048.65
2021-08-11 14:39:00,FlowAlarm;OPCInstrumentWarning,0830.5,4.98,0.00,29.6,28.2,00.0,38.8,31.5,19.7,0032.63,0048.80
2021-08-11 14:40:00,FlowAlarm;OPCInstrumentWarning,0830.5,4.99,0.00,29.6,28.4,00.0,38.8,31.5,19.6,0032.64,0048.80
2021-08-11 14:41:00,FlowAlarm;OPCInstrumentWarning,0830.5,5.01,0.00,29.6,28.5,00.0,38.8,31.6,19.4,0032.65,0048.39
2021-08-11 14:42:00,FlowAlarm;OPCInstrumentWarning,0830.5,5.01,0.00,29.7,28.6,00.0,38.8,31.7,19.1,0032.76,0047.03
2021-08-11 14:43:00,FlowAlarm;OPCInstrumentWarning,0830.4,5.01,0.00,29.7,28.7,00.0,38.8,31.7,19.4,0032.80,0046.54
2021-08-11 14:44:00,FlowAlarm;OPCInstrumentWarning,0830.4,5.00,0.00,29.7,28.9,00.0,38.9,31.7,19.3,0032.79,0046.68
2021-08-11 14:45:00,FlowAlarm;OPCInstrumentWarning,0830.4,5.01,0.00,29.8,28.9,00.0,38.9,31.8,19.5,0032.85,0047.02
2021-08-11 14:46:00,FlowAlarm;OPCInstrumentWarning,0830.4,4.99,0.00,29.8,29.0,00.0,38.9,31.8,19.5,0032.94,0047.56
2021-08-11 14:47:00,FlowAlarm;OPCInstrumentWarning,0830.4,5.01,0.00,29.9,29.1,00.0,38.9,31.8,19.4,0033.04,0048.77
2021-08-11 14:48:00,FlowAlarm;OPCInstrumentWarning,0830.5,5.01,0.00,29.9,29.1,00.0,39.0,31.9,19.1,0033.17,0048.88
2021-08-11 14:49:00,FlowAlarm;OPCInstrumentWarning,0830.6,4.99,0.00,29.9,29.2,00.0,39.0,31.9,19.3,0033.23,0049.05
2021-08-11 14:50:00,FlowAlarm;OPCInstrumentWarning,0830.6,5.01,0.00,30.0,28.7,00.0,39.0,31.8,18.8,0033.30,0049.07
2021-08-11 14:51:00,FlowAlarm;OPCInstrumentWarning,0830.5,4.98,0.00,29.9,26.9,00.0,39.0,31.3,19.2,0033.31,0049.14
2021-08-11 14:52:00,FlowAlarm;OPCInstrumentWarning,0830.5,5.01,0.00,29.7,26.3,00.0,38.9,31.1,19.4,0033.32,0049.58
2021-08-11 14:53:00,FlowAlarm;OPCInstrumentWarning,0830.4,5.00,0.00,29.6,26.6,00.0,38.9,31.2,18.9,0033.20,0049.66
2021-08-11 14:54:00,FlowAlarm;OPCInstrumentWarning,0830.4,4.99,0.00,29.6,27.0,00.0,38.9,31.3,19.0,0033.20,0049.99
2021-08-11 14:55:00,FlowAlarm;OPCInstrumentWarning,0830.4,5.00,0.00,29.5,27.4,00.0,38.8,31.3,19.5,0033.22,0050.00
2021-08-11 14:56:00,FlowAlarm;OPCInstrumentWarning,0830.4,5.00,0.00,29.5,27.7,00.0,38.8,31.4,19.5,0033.19,0049.62
2021-08-11 14:57:00,FlowAlarm;OPCInstrumentWarning,0830.3,5.00,0.00,29.5,28.0,00.0,38.8,31.4,19.4,0033.11,0049.04
2021-08-11 14:58:00,FlowAlarm;OPCInstrumentWarning,0830.2,5.01,0.00,29.6,28.2,00.0,38.8,31.5,19.3,0033.06,0047.60
2021-08-11 14:59:00,FlowAlarm;OPCInstrumentWarning,0830.3,5.01,0.00,29.6,28.4,00.0,38.8,31.5,19.3,0032.96,0047.03
